Time,TemperatureF,DewpointF,PressureIn,WindDirection,WindDirectionDegrees,WindSpeedMPH,WindSpeedGustMPH,Humidity,HourlyPrecipIn,Conditions,Clouds,dailyrainin,SoftwareType,DateUTC
2013-07-26 00:05:00,62.6,59.0,29.80,East,83,0.0,1.0,88,0.00,,,0.27,weatherlink.com 1.10,2013-07-25 23:05:00,
2013-07-26 00:20:00,62.7,59.0,29.81,East,79,0.0,1.0,86,0.00,,,0.27,weatherlink.com 1.10,2013-07-25 23:20:00,
2013-07-26 00:35:00,62.2,58.0,29.80,East,79,0.0,1.0,87,0.00,,,0.00,weatherlink.com 1.10,2013-07-25 23:35:00,
2013-07-26 00:50:00,61.8,58.0,29.80,South,169,2.0,2.0,88,0.00,,,0.00,weatherlink.com 1.10,2013-07-25 23:50:00,
2013-07-26 01:05:00,62.0,59.0,29.80,SSE,147,0.0,3.0,88,0.00,,,0.00,weatherlink.com 1.10,2013-07-26 00:05:00,
2013-07-26 01:20:00,62.0,59.0,29.80,SSE,165,0.0,2.0,88,0.00,,,0.00,weatherlink.com 1.10,2013-07-26 00:20:00,
2013-07-26 01:35:00,62.3,58.0,29.80,SSW,197,0.0,3.0,87,0.00,,,0.00,weatherlink.com 1.10,2013-07-26 00:35:00,
2013-07-26 01:50:00,62.6,58.0,29.80,WSW,252,0.0,3.0,86,0.00,,,0.00,weatherlink.com 1.10,2013-07-26 00:50:00,
2013-07-26 02:05:00,62.7,59.0,29.80,West,276,1.0,5.0,86,0.00,,,0.00,weatherlink.com 1.10,2013-07-26 01:05:00,
2013-07-26 02:20:00,63.0,59.0,29.80,SW,226,1.0,4.0,85,0.00,,,0.00,weatherlink.com 1.10,2013-07-26 01:20:00,
2013-07-26 02:35:00,63.1,58.0,29.80,NW,322,4.0,6.0,84,0.00,,,0.00,weatherlink.com 1.10,2013-07-26 01:35:00,
2013-07-26 02:50:00,63.0,58.0,29.80,WNW,301,0.0,4.0,84,0.00,,,0.00,weatherlink.com 1.10,2013-07-26 01:50:00,
2013-07-26 03:05:00,62.7,58.0,29.80,West,276,1.0,3.0,85,0.00,,,0.00,weatherlink.com 1.10,2013-07-26 02:05:00,
2013-07-26 03:20:00,62.2,58.0,29.80,WNW,301,1.0,4.0,85,0.00,,,0.00,weatherlink.com 1.10,2013-07-26 02:20:00,
2013-07-26 03:35:00,61.8,58.0,29.80,West,266,1.0,4.0,86,0.00,,,0.00,weatherlink.com 1.10,2013-07-26 02:35:00,
2013-07-26 03:50:00,61.7,57.0,29.80,South,181,3.0,5.0,85,0.00,,,0.00,weatherlink.com 1.10,2013-07-26 02:50:00,
2013-07-26 04:05:00,61.7,57.0,29.80,SW,222,2.0,6.0,84,0.00,,,0.00,weatherlink.com 1.10,2013-07-26 03:05:00,
2013-07-26 04:20:00,61.4,57.0,29.80,South,172,0.0,2.0,84,0.00,,,0.00,weatherlink.com 1.10,2013-07-26 03:20:00,
2013-07-26 04:36:00,60.8,57.0,29.80,NNW,338,1.0,2.0,86,0.00,,,0.00,weatherlink.com 1.10,2013-07-26 03:36:00,
2013-07-26 04:50:00,60.4,56.0,29.80,NNW,335,0.0,2.0,86,0.00,,,0.00,weatherlink.com 1.10,2013-07-26 03:50:00,
2013-07-26 05:05:00,60.2,56.0,29.80,West,276,0.0,3.0,87,0.00,,,0.00,weatherlink.com 1.10,2013-07-26 04:05:00,
2013-07-26 05:20:00,59.9,56.0,29.80,West,276,0.0,2.0,87,0.00,,,0.00,weatherlink.com 1.10,2013-07-26 04:20:00,
2013-07-26 05:35:00,59.6,56.0,29.81,West,280,0.0,1.0,88,0.00,,,0.00,weatherlink.com 1.10,2013-07-26 04:35:00,
2013-07-26 05:50:00,59.2,56.0,29.81,West,280,0.0,0.0,88,0.00,,,0.00,weatherlink.com 1.10,2013-07-26 04:50:00,
2013-07-26 06:06:00,59.2,56.0,29.81,West,280,0.0,0.0,89,0.00,,,0.00,weatherlink.com 1.10,2013-07-26 05:06:00,
2013-07-26 06:21:00,59.7,57.0,29.82,West,278,0.0,0.0,89,0.00,,,0.00,weatherlink.com 1.10,2013-07-26 05:21:00,
2013-07-26 06:36:00,60.9,57.0,29.82,SW,228,0.0,1.0,88,0.00,,,0.00,weatherlink.com 1.10,2013-07-26 05:36:00,
2013-07-26 06:51:00,61.4,57.0,29.82,NNW,343,1.0,2.0,86,0.00,,,0.00,weatherlink.com 1.10,2013-07-26 05:51:00,
2013-07-26 07:06:00,62.6,58.0,29.82,West,277,0.0,1.0,84,0.00,,,0.00,weatherlink.com 1.10,2013-07-26 06:06:00,
2013-07-26 07:21:00,63.7,59.0,29.82,NW,323,0.0,0.0,83,0.00,,,0.00,weatherlink.com 1.10,2013-07-26 06:21:00,
2013-07-26 07:36:00,65.0,58.0,29.83,East,83,1.0,2.0,78,0.00,,,0.00,weatherlink.com 1.10,2013-07-26 06:36:00,
2013-07-26 07:51:00,66.5,59.0,29.82,ESE,105,0.0,2.0,76,0.00,,,0.00,weatherlink.com 1.10,2013-07-26 06:51:00,
2013-07-26 08:06:00,66.9,58.0,29.83,SSE,163,1.0,2.0,74,0.00,,,0.00,weatherlink.com 1.10,2013-07-26 07:06:00,
2013-07-26 08:21:00,67.7,58.0,29.83,East,84,1.0,2.0,70,0.00,,,0.00,weatherlink.com 1.10,2013-07-26 07:21:00,
2013-07-26 08:51:00,67.1,57.0,29.83,ENE,64,2.0,4.0,70,0.00,,,0.00,weatherlink.com 1.10,2013-07-26 07:51:00,
2013-07-26 09:21:00,67.8,57.0,29.83,South,190,1.0,5.0,68,0.00,,,0.00,weatherlink.com 1.10,2013-07-26 08:21:00,
2013-07-26 09:51:00,68.6,57.0,29.83,ENE,63,1.0,5.0,67,0.00,,,0.00,weatherlink.com 1.10,2013-07-26 08:51:00,
2013-07-26 10:06:00,67.9,58.0,29.82,ENE,75,2.0,6.0,71,0.00,,,0.00,weatherlink.com 1.10,2013-07-26 09:06:00,
2013-07-26 10:21:00,67.5,60.0,29.82,ENE,68,6.0,6.0,76,0.00,,,0.00,weatherlink.com 1.10,2013-07-26 09:21:00,
2013-07-26 10:36:00,67.8,61.0,29.82,East,97,3.0,6.0,78,0.00,,,0.00,weatherlink.com 1.10,2013-07-26 09:36:00,
2013-07-26 10:51:00,67.7,61.0,29.82,ENE,68,6.0,10.0,78,0.00,,,0.00,weatherlink.com 1.10,2013-07-26 09:51:00,
2013-07-26 11:06:00,67.0,61.0,29.82,SW,215,2.0,8.0,81,0.01,,,0.01,weatherlink.com 1.10,2013-07-26 10:06:00,
2013-07-26 11:21:00,65.5,61.0,29.82,ESE,110,3.0,6.0,85,0.06,,,0.06,weatherlink.com 1.10,2013-07-26 10:21:00,
2013-07-26 11:36:00,64.2,61.0,29.82,ENE,77,3.0,9.0,88,0.06,,,0.06,weatherlink.com 1.10,2013-07-26 10:36:00,
2013-07-26 11:51:00,65.1,61.0,29.82,ENE,74,3.0,6.0,87,0.06,,,0.06,weatherlink.com 1.10,2013-07-26 10:51:00,
2013-07-26 12:06:00,65.8,62.0,29.83,ENE,72,2.0,5.0,86,0.06,,,0.07,weatherlink.com 1.10,2013-07-26 11:06:00,
2013-07-26 12:36:00,65.0,61.0,29.83,SW,228,0.0,6.0,87,0.17,,,0.22,weatherlink.com 1.10,2013-07-26 11:36:00,
2013-07-26 12:51:00,65.4,62.0,29.82,NE,56,1.0,2.0,87,0.17,,,0.23,weatherlink.com 1.10,2013-07-26 11:51:00,
2013-07-26 13:06:00,67.3,62.0,29.82,NNE,29,0.0,1.0,82,0.16,,,0.23,weatherlink.com 1.10,2013-07-26 12:06:00,
2013-07-26 13:21:00,68.3,60.0,29.82,SW,214,2.0,4.0,75,0.11,,,0.23,weatherlink.com 1.10,2013-07-26 12:21:00,
2013-07-26 13:36:00,69.1,60.0,29.82,ENE,69,1.0,7.0,72,0.01,,,0.23,weatherlink.com 1.10,2013-07-26 12:36:00,
2013-07-26 14:06:00,68.1,61.0,29.81,East,83,3.0,10.0,77,0.00,,,0.23,weatherlink.com 1.10,2013-07-26 13:06:00,
2013-07-26 14:21:00,68.5,60.0,29.81,East,91,3.0,9.0,73,0.00,,,0.23,weatherlink.com 1.10,2013-07-26 13:21:00,
2013-07-26 14:51:00,67.6,59.0,29.81,NE,49,5.0,8.0,75,0.00,,,0.23,weatherlink.com 1.10,2013-07-26 13:51:00,
2013-07-26 15:06:00,67.1,60.0,29.81,East,87,2.0,6.0,77,0.00,,,0.23,weatherlink.com 1.10,2013-07-26 14:06:00,
2013-07-26 15:21:00,69.0,61.0,29.80,East,93,2.0,7.0,76,0.00,,,0.23,weatherlink.com 1.10,2013-07-26 14:21:00,
2013-07-26 15:36:00,68.7,60.0,29.80,ENE,59,5.0,8.0,74,0.00,,,0.23,weatherlink.com 1.10,2013-07-26 14:36:00,
2013-07-26 15:51:00,67.7,61.0,29.80,South,175,9.0,10.0,80,0.18,,,0.41,weatherlink.com 1.10,2013-07-26 14:51:00,
2013-07-26 16:06:00,66.5,62.0,29.80,ENE,64,5.0,5.0,84,0.25,,,0.48,weatherlink.com 1.10,2013-07-26 15:06:00,
2013-07-26 16:21:00,66.1,62.0,29.80,ENE,61,2.0,6.0,85,0.25,,,0.48,weatherlink.com 1.10,2013-07-26 15:21:00,
2013-07-26 16:51:00,64.9,61.0,29.80,North,352,2.0,3.0,87,0.23,,,0.64,weatherlink.com 1.10,2013-07-26 15:51:00,
2013-07-26 17:06:00,63.4,60.0,29.80,North,6,2.0,12.0,87,0.35,,,0.83,weatherlink.com 1.10,2013-07-26 16:06:00,
2013-07-26 17:21:00,63.4,60.0,29.79,East,84,2.0,6.0,88,0.50,,,0.98,weatherlink.com 1.10,2013-07-26 16:21:00,
2013-07-26 17:51:00,62.7,60.0,29.79,ENE,70,3.0,10.0,89,0.61,,,1.26,weatherlink.com 1.10,2013-07-26 16:51:00,
2013-07-26 18:06:00,65.1,62.0,29.79,ENE,75,1.0,5.0,88,0.43,,,1.28,weatherlink.com 1.10,2013-07-26 17:06:00,
2013-07-26 18:22:00,64.3,60.0,29.79,ENE,77,4.0,10.0,86,0.28,,,1.28,weatherlink.com 1.10,2013-07-26 17:22:00,
2013-07-26 18:36:00,64.9,61.0,29.79,East,79,2.0,9.0,88,0.18,,,1.28,weatherlink.com 1.10,2013-07-26 17:36:00,
2013-07-26 18:51:00,64.9,61.0,29.79,ENE,72,3.0,6.0,87,0.01,,,1.28,weatherlink.com 1.10,2013-07-26 17:51:00,
2013-07-26 19:06:00,65.8,62.0,29.78,SE,139,0.0,3.0,88,0.00,,,1.28,weatherlink.com 1.10,2013-07-26 18:06:00,
2013-07-26 19:21:00,66.8,63.0,29.78,ENE,60,0.0,1.0,86,0.00,,,1.28,weatherlink.com 1.10,2013-07-26 18:21:00,
2013-07-26 19:36:00,68.7,63.0,29.78,ESE,122,0.0,1.0,81,0.00,,,1.28,weatherlink.com 1.10,2013-07-26 18:36:00,
2013-07-26 19:51:00,68.9,63.0,29.79,SE,143,0.0,1.0,80,0.00,,,1.28,weatherlink.com 1.10,2013-07-26 18:51:00,
2013-07-26 20:07:00,68.1,62.0,29.78,ENE,77,1.0,2.0,81,0.00,,,1.28,weatherlink.com 1.10,2013-07-26 19:07:00,
2013-07-26 20:37:00,68.6,63.0,29.79,NNE,19,0.0,3.0,81,0.00,,,1.28,weatherlink.com 1.10,2013-07-26 19:37:00,
2013-07-26 20:52:00,67.0,62.0,29.79,NNE,16,0.0,0.0,84,0.00,,,1.28,weatherlink.com 1.10,2013-07-26 19:52:00,
2013-07-26 21:07:00,65.8,62.0,29.80,NNW,334,0.0,2.0,86,0.00,,,1.28,weatherlink.com 1.10,2013-07-26 20:07:00,
2013-07-26 21:22:00,65.3,62.0,29.80,NNW,334,0.0,0.0,88,0.00,,,1.28,weatherlink.com 1.10,2013-07-26 20:22:00,
2013-07-26 21:37:00,64.6,60.0,29.80,SW,222,3.0,9.0,85,0.00,,,1.28,weatherlink.com 1.10,2013-07-26 20:37:00,
2013-07-26 21:52:00,65.6,59.0,29.80,WSW,246,2.0,4.0,79,0.00,,,1.28,weatherlink.com 1.10,2013-07-26 20:52:00,
2013-07-26 22:07:00,65.4,58.0,29.81,West,274,0.0,4.0,77,0.00,,,1.28,weatherlink.com 1.10,2013-07-26 21:07:00,
2013-07-26 22:22:00,65.1,57.0,29.81,WNW,285,2.0,6.0,76,0.00,,,1.28,weatherlink.com 1.10,2013-07-26 21:22:00,
2013-07-26 22:37:00,64.7,57.0,29.81,West,262,4.0,4.0,76,0.00,,,1.28,weatherlink.com 1.10,2013-07-26 21:37:00,
2013-07-26 22:52:00,64.5,57.0,29.81,SSE,165,5.0,7.0,76,0.00,,,1.28,weatherlink.com 1.10,2013-07-26 21:52:00,
2013-07-26 23:07:00,64.5,57.0,29.81,SSE,155,2.0,5.0,76,0.00,,,1.28,weatherlink.com 1.10,2013-07-26 22:07:00,
2013-07-26 23:22:00,63.9,57.0,29.81,SSE,159,0.0,3.0,77,0.00,,,1.28,weatherlink.com 1.10,2013-07-26 22:22:00,
2013-07-26 23:37:00,63.0,57.0,29.81,SSE,159,0.0,0.0,80,0.00,,,1.28,weatherlink.com 1.10,2013-07-26 22:37:00,
2013-07-26 23:52:00,62.1,57.0,29.81,West,264,3.0,4.0,82,0.00,,,1.28,weatherlink.com 1.10,2013-07-26 22:52:00,